Regional Weather Roundup
Issued by NWS

Home | Current Version | Previous Version | Graphics & Text | Print | Product List | Glossary On
Versions: 1 2 3 4 5 6 7 8 9 10 11 12 13 14 15 16 17 18 19 20 21 22 23 24 25 26 27 28 29 30 31 32 33 34 35 36 37 38 39 40 41 42 43 44 45 46 47 48 49 50
000
ASUS43 KMKX 290121
RWRWI

WISCONSIN REGIONAL WEATHER ROUNDUP
NATIONAL WEATHER SERVICE MILWAUKEE/SULLIVAN WI
800 PM CDT SUN MAY 28 2017

NOTE: "FAIR" INDICATES FEW OR NO CLOUDS BELOW 12,000 FEET WITH NO
SIGNIFICANT WEATHER AND/OR OBSTRUCTIONS TO VISIBILITY.

WIZ001-002-006>008-014>016-023>028-290200-
NORTHWEST WISCONSIN

CITY           SKY/WX    TMP DP  RH WIND       PRES   REMARKS
SUPERIOR ARPT  NOT AVBL
ASHLAND        PTCLDY    58  49  72 SW5       29.65S
HAYWARD        CLEAR     61  46  57 W6        29.68S
SIREN          RAIN      58  48  70 W5        29.71S
CUMBERLAND     PTCLDY    55  50  82 W8        29.72R
RICE LAKE      PTCLDY    59  51  76 W7        29.73R
CHETEK         CLEAR     57  52  83 W5        29.72S
LADYSMITH      CLOUDY    59  49  70 SW6       29.71F
EAU CLAIRE     MOCLDY    59  52  77 SW3       29.72S
MENOMONIE      CLEAR     61  48  63 W7        29.73S
NEW RICHMOND   PTCLDY    61  50  67 W3        29.73F
OSCEOLA        CLEAR     62  50  65 CALM      29.75F
$$

WIZ003>005-009-010-017-018-290200-
NORTH CENTRAL WISCONSIN

CITY           SKY/WX    TMP DP  RH WIND       PRES   REMARKS
MANITOWISH WTR PTCLDY    55  50  85 SW5       29.67S
ARBOR VITAE    CLOUDY    57  53  86 W3        29.67S
WOODRUFF       CLOUDY    57  53  86 W3        29.67S
RHINELANDER    CLOUDY    58  51  78 W9        29.68R
EAGLE RIVER    MOCLDY    57  45  63 W13       29.67R
LAND O LAKES   MOCLDY    55  52  90 W3        29.68R
PHILLIPS       CLEAR     57  50  78 CALM      29.68S
TOMAHAWK       CLOUDY    57  47  68 W5        29.69S
MEDFORD        CLOUDY    58  47  66 W10       29.71S
MERRILL        CLOUDY    58  53  85 W7        29.70S
$$

WIZ029-030-035-036-043>047-290200-
CENTRAL WISCONSIN

CITY           SKY/WX    TMP DP  RH WIND       PRES   REMARKS
WAUSAU         CLOUDY    57  52  83 W8        29.68F
MOSINEE        NOT AVBL
MARSHFIELD     PTCLDY    62  46  55 NW9       29.70R
STEVENS POINT  MOCLDY    64  45  49 NW8       29.70R
WAUPACA        PTCLDY    69  45  41 W3        29.69S
WAUTOMA          N/A     68  47  46 W8          N/A
WISC RAPIDS    MOCLDY    67  47  48 NW6       29.71R
CAMP DOUGLAS   CLEAR     65  46  50 W9        29.71R
$$

WIZ011>013-019>022-031-037>040-048>050-290200-
NORTHEAST WISCONSIN

CITY           SKY/WX    TMP DP  RH WIND       PRES   REMARKS
ANTIGO         CLOUDY    58  48  70 W12G18    29.69R
SHAWANO        CLEAR     68  44  41 W7        29.67R
OCONTO         CLEAR     68  45  43 W10G20    29.63R
STURGEON BAY   MOCLDY    63  55  75 SW6       29.64R
GREEN BAY      CLEAR     67  48  50 W12       29.66R
MANITOWOC      CLEAR     69  46  43 W15G24    29.67R
APPLETON       PTCLDY    66  41  39 W12G21    29.67R
CLINTONVILLE   PTCLDY    66  43  42 W10       29.67R
OSHKOSH        CLEAR     68  45  43 W10G18    29.68R
$$

WIZ032>034-041-042-053>061-290200-
SOUTHWEST WISCONSIN

CITY           SKY/WX    TMP DP  RH WIND       PRES   REMARKS
LA CROSSE      CLEAR     71  45  39 W9        29.71S
SPARTA         CLEAR     69  44  40 W7        29.72S
VIROQUA        CLEAR     67  43  41 CALM      29.75S
BOSCOBEL       CLEAR     72  44  36 W5        29.74R
PRAIRIE DU CHI CLEAR     72  39  30 W8        29.74S
PLATTEVILLE    CLEAR     69  47  45 W6        29.77R
$$

WIZ056-057-062-063-064-067-068-290200-
SOUTH CENTRAL WISCONSIN

CITY           SKY/WX    TMP DP  RH WIND       PRES   REMARKS
REEDSBURG      CLEAR     68  44  41 W13       29.72S
BARABOO/DELLS  CLEAR     66  43  42 W6        29.72S
LONE ROCK      CLEAR     71  43  36 W8        29.73R
MINERAL POINT  CLEAR     70  43  37 W5        29.76S
MADISON        PTCLDY    69  45  41 VRB6      29.73R
MIDDLETON      CLEAR     67  46  46 W7        29.74S
WATERTOWN      PTCLDY    68  47  46 W8        29.73R
MONROE         CLEAR     68  45  42 W7        29.75S
JANESVILLE     PTCLDY    72  46  40 W9        29.74R
$$

WIZ051-052-058>065-066-070>072-290200-
SOUTHEAST WISCONSIN

CITY           SKY/WX    TMP DP  RH WIND       PRES   REMARKS
MILWAUKEE      PTCLDY    74  46  36 W12G21    29.71R
WAUKESHA       PTCLDY    68  45  42 W12       29.73R
MILWAUKEE/TIMM PTCLDY    72  41  33 W9        29.71R
RACINE         PTCLDY    71  49  45 W7        29.73R
KENOSHA        PTCLDY    70  47  43 W14G24    29.72R
FOND DU LAC    CLEAR     69  45  41 W8        29.69R
SHEBOYGAN      CLEAR     69  50  50 W9        29.68R
WEST BEND      CLEAR     68  43  40 W12       29.71R
JUNEAU         PTCLDY    67  47  48 W8G18     29.72S
$$

LSZ147-162-290200-
LAKE SUPERIOR

STATION/POSITION TIME  TEMP    WIND        PRES    WAVE
                       AIR SEA DIR/SP/G            HT/PER
                 (UTC) (F)     (DEG/KT/KT) (MB)    (FT/S)
W MID LAKE BUOY  0050   41 38  200/  6/  6 1003.5F   0
DEVILS ISLAND    0100   50     210/  8/  9 1003.8R
PORT WING        2300   53     180/  3/ 14 1004.7
SAXON HARBOR     0040   57     200/  4/  6 1004.1S
$$

LMZ867-665-643>646-290200-
LAKE MICHIGAN

STATION/POSITION TIME  TEMP    WIND        PRES    WAVE
                       AIR SEA DIR/SP/G            HT/PER
                 (UTC) (F)     (DEG/KT/KT) (MB)    (FT/S)
CHAMBERS ISLAND  0030   55     360/ 12/ 18 1004.1R
N MID LAKE BUOY  0050   44 42   60/  2/  6 1005.7R   0
NORTHPORT PIER   0040   54     300/  9/ 16 1004.4R
SISTER BAY       2321   56     150/ 13/ 18   N/A
KEWAUNEE LAKESHO 0054   61     210/  3/  5 1003.9R
SHEBOYGAN LAKESH 0100   59     200/  7/  7 1004.7R
PORT WASHINGTON  0100          280/  5/ 13 1006.4
ATWATER BUOY     0009          150/ 10/ 12 1005.8R
MILWAUKEE LAKESH 0100   72     290/  7/ 10   N/A
S MID LAKE BUOY  0050   52 50  190/ 10/ 10 1006.6F   0
KENOSHA   LAKESH 0100   73     260/  9/ 13 1006.4
$$

TC  - TEMPERATURE IN CELSIUS
VSB - VISIBILITY IN STATUTE MILES
WCI - WIND CHILL INDEX
HX  - HEAT INDEX





USA.gov is the U.S. government's official web portal to all federal, state and local government web resources and services.